[[{"header":{"parameterUnit":"m.s-1","parameterCategory":1,"la1":30.2991,"la2":30.254,"lo1":-89.0895,"lo2":-89.0444,"dy":0.0017,"dx":0.0017,"nx":28,"ny":28,"refTime":"2025-09-04T03:00:00:Z","depth":0,"parameterNumber":2,"parameterNumberName":"U-component_of_WINDS"},"data":[0,0,0,0,0,0,0,0,0,0,0,0,0,0,0,0,0,0,0,0,0,0,0,0,0,0,0,0,0,0,0,0,0,0,0,0,0,0,0,0,0,0,0,0,0,0,0,0,0,0,0,0,0,0,0,0,0,0,-1.574,-1.574,0,-1.5705,-1.5704,-1.5704,-1.5662,-1.5662,-1.5661,-1.5661,-1.5622,-1.5622,-1.5621,0,0,0,0,0,0,0,0,0,0,0,0,0,-1.5772,-1.5771,-1.574,-1.574,-1.574,-1.5705,-1.5704,-1.5704,-1.5662,-1.5662,-1.5661,-1.566,-1.5622,-1.5622,-1.5621,0,0,0,0,0,0,0,0,0,0,0,0,0,-1.5749,-1.5771,-1.574,-1.5715,-1.5712,-1.5705,-1.5704,-1.5704,-1.5663,-1.5662,-1.5661,-1.566,-1.5623,-1.5622,-1.5621,-1.5636,0,0,-1.5619,-1.5619,0,0,0,0,0,0,0,0,-1.575,-1.5748,-1.5719,-1.5716,-1.5713,-1.5687,-1.5701,-1.5681,-1.5663,-1.5681,-1.5661,-1.5659,-1.5644,-1.5642,-1.5637,-1.5634,-1.5633,-1.5619,-1.5619,-1.5619,-1.5618,0,0,0,0,0,0,0,-1.5752,-1.5749,-1.5726,-1.5719,-1.5715,-1.5705,-1.57,-1.5697,-1.5669,-1.568,-1.5677,-1.5673,-1.5643,-1.5638,-1.5636,-1.5632,-1.5619,-1.5619,-1.5618,-1.5618,-1.564,-1.5641,0,0,0,0,0,0,-1.5758,-1.5751,-1.5727,-1.5725,-1.573,-1.5705,-1.57,-1.5696,-1.5668,-1.5663,-1.5674,-1.5671,-1.564,-1.5637,-1.5635,-1.565,-1.5619,-1.5618,-1.5618,-1.5639,-1.564,-1.5641,0,0,0,0,0,0,-1.5759,-1.5756,-1.5729,-1.5737,-1.5733,-1.5705,-1.5702,-1.5696,-1.5691,-1.5664,-1.5659,-1.5674,-1.5639,-1.5635,-1.5636,-1.5648,-1.5618,-1.5617,-1.5638,-1.5639,-1.5641,-1.5681,0,0,0,0,0,0,-1.576,-1.5757,-1.5762,-1.5738,-1.5733,-1.5731,-1.5702,-1.5696,-1.5691,-1.5687,-1.5663,-1.5658,-1.5638,-1.5637,-1.5636,-1.5647,-1.5617,-1.5636,-1.5638,-1.564,-1.5679,-1.5684,-1.5688,0,0,0,0,0,-1.5761,-1.5774,-1.5762,-1.576,-1.5739,-1.5732,-1.5729,-1.5706,-1.5692,-1.5697,-1.568,-1.5659,-1.5647,-1.5638,-1.5635,-1.5646,-1.5636,-1.5638,-1.564,-1.5676,-1.5683,-1.5688,0,0,0,0,0,0,-1.58,-1.5771,-1.5757,-1.5763,-1.5751,-1.5725,-1.5731,-1.5713,-1.5704,-1.5701,-1.5672,-1.5667,-1.5671,-1.5659,-1.5649,-1.566,-1.5639,-1.564,-1.5667,-1.5673,-1.5678,-1.568,-1.5616,0,0,0,0,0,-1.5809,-1.5807,-1.5781,-1.5789,-1.5784,-1.5759,-1.5755,-1.5738,-1.5723,-1.5718,-1.57,-1.5687,-1.568,-1.5676,-1.5668,-1.5677,-1.5671,-1.5684,-1.5689,-1.5693,-1.5694,-1.5698,-1.5703,-1.5648,-1.5648,-1.5648,0,0,-1.5829,-1.5812,-1.5812,-1.5797,-1.5785,-1.5782,-1.5754,-1.5753,-1.575,-1.5717,-1.5717,-1.5704,-1.5687,-1.5692,-1.5693,-1.5682,-1.5708,-1.5695,-1.5699,-1.5698,-1.5701,-1.5706,-1.5711,-1.565,-1.5649,-1.5649,0,0,-1.5862,-1.585,-1.5855,-1.5844,-1.5827,-1.5811,-1.5812,-1.579,-1.578,-1.578,-1.5755,-1.5752,-1.5741,-1.573,-1.5722,-1.5754,-1.5734,-1.5752,-1.5777,-1.5781,-1.5785,-1.5789,-1.58,-1.5804,-1.5754,-1.5754,-1.5754,0,-1.5888,-1.5884,-1.586,-1.586,-1.5854,-1.5825,-1.583,-1.5821,-1.5802,-1.5798,-1.5786,-1.5772,-1.5758,-1.5761,-1.5768,-1.5764,-1.5764,-1.5754,-1.5787,-1.579,-1.5793,-1.5803,-1.5808,-1.5756,-1.5756,-1.5756,-1.5755,0,-1.5916,-1.5914,-1.592,-1.5904,-1.5898,-1.5901,-1.5877,-1.5875,-1.5859,-1.5844,-1.5844,-1.5827,-1.5816,-1.5815,-1.5799,-1.5815,-1.5809,-1.5792,-1.577,-1.5801,-1.581,-1.5814,-1.5759,-1.5759,-1.5758,-1.5757,0,0,-1.5972,-1.5943,-1.5946,-1.5938,-1.5918,-1.5915,-1.5917,-1.5907,-1.5905,-1.5894,-1.5894,-1.5886,-1.5871,-1.5863,-1.5846,-1.585,-1.5876,-1.5833,-1.5832,-1.5841,-1.5892,-1.5904,-1.5909,-1.5863,-1.5864,-1.5865,-1.5894,0,-1.6001,-1.6003,-1.5982,-1.5989,-1.5987,-1.596,-1.5961,-1.5949,-1.5935,-1.5931,-1.5915,-1.591,-1.5891,-1.5886,-1.5889,-1.5872,-1.5885,-1.587,-1.5863,-1.5863,-1.5867,-1.5914,-1.5926,-1.5955,-1.5897,-1.5898,-1.5898,0,-1.6036,-1.6027,-1.6034,-1.6014,-1.6012,-1.6014,-1.6003,-1.6,-1.5985,-1.5975,-1.5967,-1.5948,-1.5948,-1.5928,-1.5928,-1.5918,-1.5914,-1.5905,-1.5906,-1.5904,-1.5882,-1.5912,-1.5963,-1.5967,-1.5903,-1.5903,-1.5902,0,-1.6075,-1.6065,-1.6068,-1.6063,-1.604,-1.6042,-1.6032,-1.6017,-1.6012,-1.6003,-1.5999,-1.599,-1.5985,-1.5978,-1.5957,-1.5944,-1.5959,-1.5937,-1.595,-1.595,-1.5953,-1.5953,-1.6003,-1.5952,-1.5952,-1.5952,-1.5952,0,-1.611,-1.6115,-1.6086,-1.6088,-1.6093,-1.6069,-1.6075,-1.6063,-1.605,-1.6048,-1.6025,-1.6024,-1.5997,-1.5993,-1.5976,-1.5979,-1.5976,-1.5968,-1.5963,-1.5969,-1.5971,-1.5966,-1.5963,-1.5953,-1.5953,-1.5952,-1.5952,0,-1.6154,-1.6135,-1.6137,-1.6115,-1.611,-1.6115,-1.6096,-1.6097,-1.6083,-1.6081,-1.608,-1.6057,-1.6051,-1.603,-1.6019,-1.6008,-1.6015,-1.6006,-1.602,-1.6017,-1.6031,-1.603,-1.6079,-1.6084,-1.603,-1.6031,-1.6031,0,-1.6177,-1.6181,-1.6161,-1.6158,-1.615,-1.6147,-1.6142,-1.612,-1.6116,-1.61,-1.6103,-1.6096,-1.6089,-1.6081,-1.6063,-1.6055,-1.6045,-1.6063,-1.6044,-1.605,-1.6045,-1.6045,-1.6045,-1.6067,-1.6068,-1.6069,-1.6069,0,-1.622,-1.6211,-1.6205,-1.6197,-1.6193,-1.6185,-1.6176,-1.6175,-1.615,-1.6147,-1.6141,-1.6136,-1.6125,-1.6118,-1.6107,-1.6097,-1.6079,-1.6076,-1.6078,-1.6084,-1.6092,-1.6087,-1.6031,-1.6074,-1.6074,-1.6073,-1.6073,-1.6073,-1.6254,-1.6256,-1.6243,-1.6238,-1.6229,-1.6221,-1.6221,-1.6206,-1.6202,-1.6192,-1.6179,-1.6175,-1.6161,-1.6144,-1.6136,-1.6132,-1.6122,-1.6126,-1.6126,-1.6128,-1.6131,-1.6093,-1.613,-1.613,-1.613,-1.613,-1.613,0,-1.6296,-1.6286,-1.6282,-1.627,-1.6266,-1.6251,-1.624,-1.6237,-1.6235,-1.6224,-1.6218,-1.6212,-1.6205,-1.6187,-1.6179,-1.618,-1.6171,-1.6178,-1.6177,-1.6175,-1.614,-1.6139,-1.6185,-1.6185,-1.6185,-1.6185,-1.6185,-1.6185,-1.6317,-1.6319,-1.6309,-1.6307,-1.6297,-1.6293,-1.6289,-1.6281,-1.6273,-1.6267,-1.6262,-1.6251,-1.6237,-1.6228,-1.6221,-1.6216,-1.6214,-1.6223,-1.6216,-1.6183,-1.6178,-1.6173,-1.6171,-1.6223,-1.6223,-1.6251,-1.6251,-1.6251]},{"header":{"parameterUnit":"m.s-1","parameterCategory":1,"la1":30.2991,"la2":30.254,"lo1":-89.0895,"lo2":-89.0444,"dy":0.0017,"dx":0.0017,"nx":28,"ny":28,"refTime":"2025-09-04T03:00:00:Z","depth":0,"parameterNumber":3,"parameterNumberName":"V-component_of_WINDS"},"data":[0,0,0,0,0,0,0,0,0,0,0,0,0,0,0,0,0,0,0,0,0,0,0,0,0,0,0,0,0,0,0,0,0,0,0,0,0,0,0,0,0,0,0,0,0,0,0,0,0,0,0,0,0,0,0,0,0,0,2.5088,2.5088,0,2.505,2.5049,2.5049,2.5075,2.5077,2.5078,2.5079,2.5034,2.5032,2.503,0,0,0,0,0,0,0,0,0,0,0,0,0,2.518,2.5178,2.5089,2.5088,2.5088,2.505,2.5049,2.5049,2.5075,2.5077,2.5078,2.5079,2.5035,2.5032,2.5029,0,0,0,0,0,0,0,0,0,0,0,0,0,2.5141,2.5178,2.5089,2.5096,2.5097,2.505,2.5049,2.5049,2.5075,2.5077,2.5078,2.508,2.5036,2.5032,2.5029,2.4971,0,0,2.5018,2.5017,0,0,0,0,0,0,0,0,2.5143,2.5137,2.5096,2.5096,2.5096,2.5069,2.5065,2.5023,2.5074,2.5083,2.5079,2.5081,2.5044,2.504,2.5029,2.4969,2.4967,2.5018,2.5016,2.5014,2.5013,0,0,0,0,0,0,0,2.5146,2.5139,2.5073,2.5095,2.5095,2.51,2.5096,2.5057,2.5054,2.5082,2.5084,2.508,2.5044,2.5032,2.5028,2.4966,2.5018,2.5015,2.5013,2.5011,2.4856,2.4854,0,0,0,0,0,0,2.5148,2.5141,2.5074,2.5072,2.5125,2.5097,2.5093,2.5076,2.5054,2.5053,2.5078,2.5081,2.5037,2.5032,2.5026,2.4956,2.5014,2.5011,2.5009,2.4858,2.4856,2.4853,0,0,0,0,0,0,2.515,2.5142,2.5076,2.5107,2.5099,2.5093,2.5074,2.5074,2.5062,2.5051,2.505,2.5066,2.5038,2.5031,2.4985,2.4955,2.501,2.5006,2.4861,2.4857,2.4855,2.4815,0,0,0,0,0,0,2.5153,2.5143,2.5122,2.5106,2.5097,2.5036,2.5072,2.5072,2.5056,2.506,2.504,2.5038,2.5039,2.499,2.4981,2.4951,2.5004,2.4863,2.4859,2.4856,2.4819,2.4811,2.4805,0,0,0,0,0,2.5156,2.5111,2.5121,2.5112,2.5071,2.5035,2.5029,2.5033,2.5054,2.5032,2.5025,2.5039,2.496,2.4985,2.4975,2.4944,2.4865,2.486,2.4856,2.4823,2.4813,2.4805,0,0,0,0,0,0,2.5121,2.5109,2.5119,2.5069,2.5053,2.5039,2.5012,2.5023,2.4999,2.5003,2.5007,2.5002,2.4953,2.4944,2.4972,2.4886,2.4916,2.4909,2.4893,2.4884,2.4877,2.4879,2.5001,0,0,0,0,0,2.5108,2.5081,2.5072,2.5028,2.5019,2.5017,2.5001,2.5006,2.4988,2.4981,2.497,2.4952,2.4923,2.4903,2.4876,2.4819,2.4814,2.4792,2.4785,2.4779,2.4772,2.474,2.473,2.4838,2.4838,2.4839,0,0,2.508,2.507,2.5052,2.5021,2.5009,2.4979,2.5011,2.4978,2.4955,2.4975,2.4931,2.4923,2.4902,2.4849,2.4826,2.484,2.4742,2.4773,2.4768,2.4765,2.4734,2.4724,2.4715,2.4835,2.4836,2.4836,0,0,2.5013,2.5004,2.4966,2.4953,2.4935,2.4934,2.4925,2.491,2.4906,2.4862,2.4876,2.4848,2.4799,2.4783,2.4768,2.4696,2.4707,2.4687,2.4648,2.4616,2.4607,2.46,2.4572,2.4562,2.4681,2.4681,2.4681,0,2.4979,2.4936,2.4944,2.491,2.4895,2.4914,2.4875,2.4862,2.4835,2.4823,2.4841,2.4779,2.4766,2.4709,2.4692,2.468,2.4668,2.4688,2.4608,2.4601,2.4594,2.4567,2.4557,2.4678,2.4679,2.4679,2.4679,0,2.4895,2.4865,2.4837,2.4812,2.4794,2.4757,2.4758,2.4738,2.4744,2.4741,2.4695,2.4681,2.4651,2.4638,2.4643,2.4582,2.4591,2.4608,2.4638,2.4581,2.4556,2.4546,2.4675,2.4676,2.4676,2.4677,0,0,2.4804,2.4785,2.4774,2.4763,2.4745,2.472,2.4684,2.4657,2.4639,2.462,2.4588,2.4546,2.4562,2.4545,2.4549,2.4522,2.4463,2.4542,2.4541,2.4526,2.4392,2.4378,2.4367,2.4471,2.4469,2.4468,2.4394,0,2.4734,2.4673,2.4679,2.4619,2.4591,2.4609,2.4577,2.4561,2.4557,2.4531,2.4526,2.4495,2.452,2.4509,2.4483,2.4476,2.4436,2.4481,2.4439,2.4438,2.4442,2.4354,2.4339,2.4269,2.4384,2.4383,2.4381,0,2.4645,2.4624,2.4562,2.4548,2.4536,2.4508,2.4483,2.4458,2.444,2.4439,2.4421,2.443,2.4391,2.4423,2.4369,2.44,2.4384,2.4377,2.4375,2.4369,2.4405,2.4344,2.4248,2.4236,2.4366,2.4368,2.4369,0,2.4582,2.4539,2.4496,2.4486,2.4469,2.4448,2.444,2.4424,2.4407,2.4384,2.4373,2.4346,2.433,2.4308,2.4308,2.4332,2.4253,2.4286,2.4249,2.4249,2.423,2.423,2.4127,2.4222,2.4223,2.4223,2.4223,0,2.4502,2.4463,2.4467,2.4441,2.4397,2.4404,2.436,2.4354,2.434,2.4311,2.4325,2.4298,2.4301,2.4272,2.4272,2.4226,2.422,2.4216,2.4216,2.4214,2.4214,2.4201,2.4205,2.422,2.4221,2.4221,2.4222,0,2.4424,2.4425,2.4379,2.4368,2.4364,2.4332,2.4321,2.4295,2.4293,2.4256,2.4248,2.4243,2.421,2.4209,2.4171,2.4171,2.4115,2.4121,2.4121,2.4122,2.4084,2.4087,2.3968,2.3952,2.4059,2.4058,2.4057,0,2.4372,2.4342,2.4328,2.4311,2.4301,2.4273,2.4256,2.4262,2.4243,2.4221,2.4197,2.4166,2.4141,2.4088,2.408,2.4051,2.4055,2.4016,2.4051,2.4049,2.4052,2.4053,2.4049,2.4008,2.4007,2.4006,2.4005,0,2.4279,2.4282,2.4257,2.4233,2.4213,2.4193,2.4175,2.416,2.4163,2.4141,2.4109,2.409,2.4052,2.402,2.3992,2.3982,2.3993,2.3994,2.3984,2.398,2.398,2.3978,2.41,2.3996,2.3997,2.3998,2.3998,2.3999,2.4211,2.4185,2.4171,2.4143,2.4131,2.4114,2.4089,2.4084,2.4058,2.4028,2.4033,2.3997,2.3979,2.3942,2.393,2.39,2.3913,2.3899,2.3895,2.389,2.3886,2.3987,2.3895,2.3895,2.3895,2.3896,2.3896,0,2.4117,2.411,2.4084,2.406,2.4037,2.4053,2.4034,2.4013,2.3981,2.3965,2.3941,2.3903,2.3873,2.3863,2.3833,2.3811,2.3815,2.3803,2.3803,2.38,2.3876,2.3887,2.38,2.38,2.38,2.38,2.38,2.38,2.4066,2.4023,2.4024,2.3974,2.3966,2.3932,2.392,2.3903,2.389,2.3848,2.3823,2.3818,2.3804,2.3773,2.3745,2.3743,2.373,2.3715,2.3715,2.3785,2.3795,2.3804,2.3815,2.3713,2.3713,2.3641,2.364,2.364]}]]